Location: De Greiden
(52.9496°N, 5.9137°E)
Time: 23:58:04
(UTC+00:00)

Cosmos 1844 Rocket - Pass Details

Date: 24 January 2021
Orbit: 825 x 843 km, 71.0° (Epoch: 01 March)

Event Time Altitude Azimuth Distance (km) Brightness Sun altitude
Rises 18:44:17 0° 231° (SW) 3,393 6.6 -23.4°
Reaches altitude 10° 18:46:49 10° 237° (WSW) 2,460 5.9 -23.8°
Maximum altitude 18:52:15 47° 311° (NW) 1,109 3.6 -24.6°
Enters shadow 18:55:48 21° 16° (NNE) 1,813 4.3 -25.1°
